UAL1993 KSAN-KSFO

Flight info

Callsign UAL1993
Flight time 1h 5m
Altitude 34000
Route PADRZ2 IKAYE RIZIN SPLNT STOKD SERFR SERFR4
Aircraft B77W/H-SDE1E2E3FGHIJ2J3J4J5M1RWXY/LB1D1

Departure

Time 2026-05-06 03:13
Airport San Diego International Airport (KSAN)

Arrival

Time 2026-05-06 04:18
Airport San Francisco International Airport (KSFO)
Time Latitude Longitude Altitude Speed Heading
2026-05-06 02:45 32.73337 -117.20770 27 ft 0 kts 227°
2026-05-06 02:59 32.73345 -117.20760 19 ft 4 kts 233°
2026-05-06 02:59 32.73359 -117.20740 35 ft 4 kts 220°
2026-05-06 03:00 32.73380 -117.20730 26 ft 4 kts 162°
2026-05-06 03:00 32.73403 -117.20739 31 ft 2 kts 179°
2026-05-06 03:00 32.73404 -117.20739 31 ft 0 kts 180°
2026-05-06 03:02 32.73403 -117.20738 31 ft 2 kts 179°
2026-05-06 03:02 32.73355 -117.20699 26 ft 10 kts 131°
2026-05-06 03:03 32.73340 -117.20624 27 ft 10 kts 88°
2026-05-06 03:03 32.73374 -117.20563 28 ft 10 kts 16°
2026-05-06 03:03 32.73450 -117.20558 30 ft 12 kts
2026-05-06 03:03 32.73522 -117.20502 27 ft 12 kts 50°
2026-05-06 03:04 32.73524 -117.20499 26 ft 0 kts 53°
2026-05-06 03:04 32.73535 -117.20482 28 ft 6 kts 53°
2026-05-06 03:04 32.73576 -117.20422 29 ft 13 kts 52°
2026-05-06 03:05 32.73579 -117.20314 27 ft 15 kts 109°
2026-05-06 03:05 32.73559 -117.20228 30 ft 4 kts 105°
2026-05-06 03:05 32.73551 -117.20194 30 ft 4 kts 105°
2026-05-06 03:05 32.73542 -117.20159 30 ft 5 kts 106°
2026-05-06 03:06 32.73528 -117.20103 30 ft 8 kts 106°
2026-05-06 03:06 32.73512 -117.20036 30 ft 9 kts 106°
2026-05-06 03:06 32.73495 -117.19967 31 ft 9 kts 106°
2026-05-06 03:06 32.73478 -117.19899 32 ft 9 kts 106°
2026-05-06 03:07 32.73462 -117.19831 32 ft 9 kts 106°
2026-05-06 03:07 32.73440 -117.19736 31 ft 19 kts 105°
2026-05-06 03:07 32.73402 -117.19581 32 ft 19 kts 106°
2026-05-06 03:07 32.73366 -117.19430 31 ft 19 kts 107°
2026-05-06 03:08 32.73327 -117.19272 28 ft 21 kts 106°
2026-05-06 03:08 32.73287 -117.19107 30 ft 21 kts 105°
2026-05-06 03:08 32.73248 -117.18942 31 ft 21 kts 106°
2026-05-06 03:08 32.73208 -117.18781 35 ft 21 kts 106°
2026-05-06 03:09 32.73167 -117.18612 33 ft 21 kts 106°
2026-05-06 03:09 32.73126 -117.18440 31 ft 22 kts 106°
2026-05-06 03:09 32.73083 -117.18266 31 ft 22 kts 106°
2026-05-06 03:09 32.73041 -117.18091 28 ft 22 kts 106°
2026-05-06 03:10 32.73001 -117.17925 28 ft 16 kts 106°
2026-05-06 03:10 32.72970 -117.17811 32 ft 9 kts 107°
2026-05-06 03:10 32.72959 -117.17764 31 ft 4 kts 106°
2026-05-06 03:10 32.72953 -117.17738 31 ft 3 kts 101°
2026-05-06 03:11 32.72953 -117.17716 28 ft 3 kts 86°
2026-05-06 03:11 32.72955 -117.17691 28 ft 4 kts 80°
2026-05-06 03:11 32.72965 -117.17637 30 ft 8 kts 66°
2026-05-06 03:11 32.73014 -117.17611 30 ft 9 kts 342°
2026-05-06 03:12 32.73033 -117.17640 30 ft 1 kts 286°
2026-05-06 03:12 32.73033 -117.17641 30 ft 0 kts 286°
2026-05-06 03:12 32.73035 -117.17649 30 ft 10 kts 286°
2026-05-06 03:13 32.73141 -117.18081 28 ft 98 kts 286°
2026-05-06 03:13 32.73403 -117.19152 47 ft 167 kts 287°
2026-05-06 03:13 32.73747 -117.20527 648 ft 175 kts 290°
2026-05-06 03:13 32.74251 -117.21781 1728 ft 163 kts 300°
2026-05-06 03:14 32.74873 -117.22956 2468 ft 177 kts 302°
2026-05-06 03:14 32.75607 -117.24282 2876 ft 210 kts 303°
2026-05-06 03:14 32.76487 -117.25830 3385 ft 237 kts 304°
2026-05-06 03:14 32.77436 -117.27483 4350 ft 247 kts 304°
2026-05-06 03:15 32.78432 -117.29213 5099 ft 258 kts 304°
2026-05-06 03:15 32.79453 -117.30986 5600 ft 260 kts 305°
2026-05-06 03:15 32.80509 -117.32754 6109 ft 264 kts 307°
2026-05-06 03:15 32.81623 -117.34481 6623 ft 264 kts 308°
2026-05-06 03:16 32.82734 -117.36181 7170 ft 262 kts 309°
2026-05-06 03:16 32.83852 -117.37897 7785 ft 265 kts 309°
2026-05-06 03:16 32.84999 -117.39663 8453 ft 273 kts 309°
2026-05-06 03:16 32.86170 -117.41471 9105 ft 278 kts 308°
2026-05-06 03:17 32.87356 -117.43308 9748 ft 280 kts 309°
2026-05-06 03:17 32.88544 -117.45152 10358 ft 282 kts 309°
2026-05-06 03:17 32.89758 -117.47035 10875 ft 298 kts 309°
2026-05-06 03:17 32.91088 -117.49101 11102 ft 331 kts 309°
2026-05-06 03:18 32.92540 -117.51355 11647 ft 352 kts 308°
2026-05-06 03:18 32.94049 -117.53706 12555 ft 361 kts 308°
2026-05-06 03:18 32.95575 -117.56085 13759 ft 363 kts 308°
2026-05-06 03:18 32.97110 -117.58479 14851 ft 366 kts 308°
2026-05-06 03:19 32.98661 -117.60902 15811 ft 371 kts 308°
2026-05-06 03:19 33.00213 -117.63326 16860 ft 374 kts 308°
2026-05-06 03:19 33.01818 -117.65835 17634 ft 386 kts 308°
2026-05-06 03:19 33.03484 -117.68437 18436 ft 394 kts 308°
2026-05-06 03:20 33.06878 -117.73623 19633 ft 396 kts 314°
2026-05-06 03:20 33.08902 -117.75876 20247 ft 400 kts 320°
2026-05-06 03:20 33.11056 -117.77946 20897 ft 404 kts 322°
2026-05-06 03:21 33.13266 -117.80035 21540 ft 407 kts 321°
2026-05-06 03:21 33.15475 -117.82201 22099 ft 412 kts 320°
2026-05-06 03:21 33.17666 -117.84416 22631 ft 413 kts 319°
2026-05-06 03:21 33.19842 -117.86661 23052 ft 415 kts 318°
2026-05-06 03:22 33.21963 -117.89057 23472 ft 421 kts 316°
2026-05-06 03:22 33.24040 -117.91538 23847 ft 425 kts 315°
2026-05-06 03:22 33.26122 -117.94070 24194 ft 428 kts 315°
2026-05-06 03:22 33.28209 -117.96614 24541 ft 429 kts 315°
2026-05-06 03:23 33.30307 -117.99159 24912 ft 430 kts 315°
2026-05-06 03:23 33.32419 -118.01708 25268 ft 431 kts 315°
2026-05-06 03:23 33.34535 -118.04252 25634 ft 432 kts 315°
2026-05-06 03:23 33.36650 -118.06788 26005 ft 426 kts 315°
2026-05-06 03:24 33.38697 -118.09243 26314 ft 409 kts 316°
2026-05-06 03:24 33.40702 -118.11646 26679 ft 408 kts 316°
2026-05-06 03:24 33.42704 -118.14044 27085 ft 406 kts 316°
2026-05-06 03:24 33.44702 -118.16440 27467 ft 408 kts 316°
2026-05-06 03:25 33.46712 -118.18850 27855 ft 410 kts 316°
2026-05-06 03:25 33.48735 -118.21278 28259 ft 412 kts 316°
2026-05-06 03:25 33.50762 -118.23715 28675 ft 414 kts 316°
2026-05-06 03:25 33.52806 -118.26173 29087 ft 417 kts 316°
2026-05-06 03:26 33.54835 -118.28616 29504 ft 419 kts 316°
2026-05-06 03:26 33.56898 -118.31104 29927 ft 423 kts 317°
2026-05-06 03:26 33.58998 -118.33635 30316 ft 432 kts 317°
2026-05-06 03:26 33.61136 -118.36211 30693 ft 439 kts 317°
2026-05-06 03:27 33.63306 -118.38830 31049 ft 443 kts 317°
2026-05-06 03:27 33.65475 -118.41451 31408 ft 443 kts 317°
2026-05-06 03:27 33.67646 -118.44079 31777 ft 444 kts 317°
2026-05-06 03:27 33.69795 -118.46681 32143 ft 444 kts 317°
2026-05-06 03:28 33.71997 -118.49350 32529 ft 445 kts 317°
2026-05-06 03:28 33.74172 -118.51986 32906 ft 445 kts 317°
2026-05-06 03:28 33.76329 -118.54605 33289 ft 447 kts 317°
2026-05-06 03:28 33.78518 -118.57262 33696 ft 449 kts 317°
2026-05-06 03:29 33.80722 -118.59939 34066 ft 452 kts 317°
2026-05-06 03:29 33.82953 -118.62648 34036 ft 457 kts 317°
2026-05-06 03:29 33.87451 -118.68128 34038 ft 456 kts 317°
2026-05-06 03:30 33.91805 -118.73443 34030 ft 438 kts 318°
2026-05-06 03:30 33.96065 -118.78645 34049 ft 437 kts 318°
2026-05-06 03:31 34.00362 -118.83893 34052 ft 442 kts 318°
2026-05-06 03:31 34.04695 -118.89200 34042 ft 445 kts 318°
2026-05-06 03:32 34.09043 -118.94537 34037 ft 447 kts 319°
2026-05-06 03:32 34.13389 -118.99878 34038 ft 445 kts 320°
2026-05-06 03:33 34.17129 -119.05897 34055 ft 452 kts 307°
2026-05-06 03:33 34.20325 -119.12444 34035 ft 452 kts 306°
2026-05-06 03:34 34.23552 -119.18947 34035 ft 450 kts 307°
2026-05-06 03:34 34.26822 -119.25360 34003 ft 451 kts 309°
2026-05-06 03:35 34.30129 -119.31800 34027 ft 449 kts 308°
2026-05-06 03:35 34.33380 -119.38168 34030 ft 440 kts 308°
2026-05-06 03:36 34.36605 -119.44471 34025 ft 441 kts 309°
2026-05-06 03:36 34.39292 -119.49738 34025 ft 442 kts 308°
2026-05-06 03:37 34.43607 -119.56522 34011 ft 432 kts 322°
2026-05-06 03:37 34.47157 -119.60854 34026 ft 433 kts 323°
2026-05-06 03:38 34.51411 -119.65995 34028 ft 437 kts 322°
2026-05-06 03:38 34.55715 -119.71252 34019 ft 438 kts 322°
2026-05-06 03:39 34.59979 -119.76511 34039 ft 436 kts 322°
2026-05-06 03:39 34.64209 -119.81738 34034 ft 432 kts 322°
2026-05-06 03:40 34.68415 -119.86939 34033 ft 430 kts 322°
2026-05-06 03:40 34.72583 -119.92103 34037 ft 430 kts 322°
2026-05-06 03:41 34.76786 -119.97313 34057 ft 433 kts 323°
2026-05-06 03:41 34.81031 -120.02581 34072 ft 438 kts 323°
2026-05-06 03:42 34.85300 -120.07896 34071 ft 440 kts 323°
2026-05-06 03:42 34.89570 -120.13221 34061 ft 439 kts 322°
2026-05-06 03:43 34.93811 -120.18517 34071 ft 438 kts 323°
2026-05-06 03:43 34.98065 -120.23837 34078 ft 437 kts 323°
2026-05-06 03:44 35.02307 -120.29152 34078 ft 436 kts 323°
2026-05-06 03:44 35.06543 -120.34464 34081 ft 436 kts 323°
2026-05-06 03:45 35.10812 -120.39637 34080 ft 432 kts 326°
2026-05-06 03:45 35.15250 -120.44590 34072 ft 432 kts 326°
2026-05-06 03:46 35.19704 -120.49532 34072 ft 433 kts 326°
2026-05-06 03:46 35.24164 -120.54526 34068 ft 435 kts 325°
2026-05-06 03:47 35.28606 -120.59530 34075 ft 433 kts 325°
2026-05-06 03:47 35.33033 -120.64524 34074 ft 432 kts 325°
2026-05-06 03:48 35.37449 -120.69511 34057 ft 431 kts 325°
2026-05-06 03:48 35.41848 -120.74489 34076 ft 430 kts 325°
2026-05-06 03:49 35.46253 -120.79473 34095 ft 432 kts 325°
2026-05-06 03:49 35.50815 -120.84226 34090 ft 428 kts 331°
2026-05-06 03:50 35.55571 -120.88609 34089 ft 428 kts 330°
2026-05-06 03:50 35.59745 -120.94002 34102 ft 443 kts 315°
2026-05-06 03:51 35.63391 -121.00094 34086 ft 446 kts 314°
2026-05-06 03:51 35.67002 -121.06306 34072 ft 446 kts 313°
2026-05-06 03:52 35.70593 -121.12523 34058 ft 445 kts 313°
2026-05-06 03:52 35.74486 -121.18261 34083 ft 428 kts 327°
2026-05-06 03:53 35.76800 -121.20497 34021 ft 417 kts 333°
2026-05-06 03:53 35.79227 -121.22367 34080 ft 406 kts 339°
2026-05-06 03:53 35.84383 -121.25114 34061 ft 407 kts 345°
2026-05-06 03:54 35.89664 -121.27732 33502 ft 411 kts 345°
2026-05-06 03:54 35.92301 -121.29065 33065 ft 407 kts 345°
2026-05-06 03:54 35.94909 -121.30397 32606 ft 404 kts 344°
2026-05-06 03:55 35.97496 -121.31725 32146 ft 401 kts 344°
2026-05-06 03:55 36.00060 -121.33042 31711 ft 397 kts 344°
2026-05-06 03:55 36.02607 -121.34348 31278 ft 394 kts 344°
2026-05-06 03:55 36.05129 -121.35643 30846 ft 392 kts 344°
2026-05-06 03:56 36.07620 -121.36994 30411 ft 393 kts 340°
2026-05-06 03:56 36.10003 -121.38671 29938 ft 394 kts 335°
2026-05-06 03:56 36.12302 -121.40503 29452 ft 392 kts 333°
2026-05-06 03:56 36.14559 -121.42357 28997 ft 387 kts 334°
2026-05-06 03:57 36.16799 -121.44179 28608 ft 383 kts 334°
2026-05-06 03:57 36.19029 -121.45971 28155 ft 382 kts 334°
2026-05-06 03:57 36.21256 -121.47739 27698 ft 379 kts 334°
2026-05-06 03:57 36.23473 -121.49488 27287 ft 376 kts 334°
2026-05-06 03:58 36.25679 -121.51213 26864 ft 374 kts 334°
2026-05-06 03:58 36.27875 -121.52927 26434 ft 372 kts 334°
2026-05-06 03:58 36.30036 -121.54617 26063 ft 370 kts 334°
2026-05-06 03:58 36.32204 -121.56315 25716 ft 367 kts 334°
2026-05-06 03:59 36.34353 -121.57997 25316 ft 366 kts 334°
2026-05-06 03:59 36.36510 -121.59686 24902 ft 366 kts 334°
2026-05-06 03:59 36.38655 -121.61367 24482 ft 365 kts 334°
2026-05-06 03:59 36.40807 -121.63056 24060 ft 365 kts 334°
2026-05-06 04:00 36.42954 -121.64743 23619 ft 365 kts 333°
2026-05-06 04:00 36.45098 -121.66427 23136 ft 364 kts 333°
2026-05-06 04:00 36.47236 -121.68109 22687 ft 363 kts 333°
2026-05-06 04:00 36.49364 -121.69785 22268 ft 361 kts 333°
2026-05-06 04:01 36.51484 -121.71455 21842 ft 360 kts 333°
2026-05-06 04:01 36.53601 -121.73126 21416 ft 359 kts 333°
2026-05-06 04:01 36.55706 -121.74790 21006 ft 358 kts 332°
2026-05-06 04:01 36.57800 -121.76448 20629 ft 354 kts 332°
2026-05-06 04:02 36.59879 -121.78094 20222 ft 355 kts 332°
2026-05-06 04:02 36.61973 -121.79750 19800 ft 359 kts 332°
2026-05-06 04:02 36.64086 -121.81425 19355 ft 360 kts 332°
2026-05-06 04:02 36.66197 -121.83100 18904 ft 359 kts 331°
2026-05-06 04:03 36.68303 -121.84772 18469 ft 358 kts 331°
2026-05-06 04:03 36.70402 -121.86440 17953 ft 356 kts 331°
2026-05-06 04:03 36.72493 -121.88101 17443 ft 356 kts 331°
2026-05-06 04:03 36.74622 -121.89602 16970 ft 347 kts 342°
2026-05-06 04:04 36.76910 -121.90318 16522 ft 335 kts 352°
2026-05-06 04:04 36.79196 -121.90888 16094 ft 333 kts 351°
2026-05-06 04:04 36.81433 -121.91479 15678 ft 332 kts 351°
2026-05-06 04:04 36.83681 -121.92090 15258 ft 330 kts 350°
2026-05-06 04:05 36.85922 -121.92708 14823 ft 329 kts 350°
2026-05-06 04:05 36.88151 -121.93328 14407 ft 328 kts 350°
2026-05-06 04:05 36.90376 -121.93949 13989 ft 327 kts 350°
2026-05-06 04:05 36.92591 -121.94569 13527 ft 326 kts 350°
2026-05-06 04:06 36.94807 -121.95190 13073 ft 325 kts 350°
2026-05-06 04:06 36.96987 -121.95912 12638 ft 324 kts 346°
2026-05-06 04:06 36.99136 -121.96750 12236 ft 322 kts 345°
2026-05-06 04:06 37.01266 -121.97608 11814 ft 321 kts 345°
2026-05-06 04:07 37.03384 -121.98460 11413 ft 319 kts 345°
2026-05-06 04:07 37.05496 -121.99302 11009 ft 318 kts 345°
2026-05-06 04:07 37.07600 -122.00134 10610 ft 316 kts 345°
2026-05-06 04:07 37.09663 -122.00947 10466 ft 306 kts 345°
2026-05-06 04:08 37.11668 -122.01735 10307 ft 297 kts 346°
2026-05-06 04:08 37.13611 -122.02497 10183 ft 288 kts 346°
2026-05-06 04:08 37.15490 -122.03233 10047 ft 279 kts 346°
2026-05-06 04:08 37.17320 -122.03950 9793 ft 275 kts 346°
2026-05-06 04:09 37.19148 -122.04662 9469 ft 274 kts 346°
2026-05-06 04:09 37.20965 -122.05371 9140 ft 272 kts 346°
2026-05-06 04:09 37.22772 -122.06081 8818 ft 272 kts 345°
2026-05-06 04:09 37.24555 -122.06781 8500 ft 272 kts 345°
2026-05-06 04:10 37.26352 -122.07486 8183 ft 271 kts 345°
2026-05-06 04:10 37.28153 -122.08194 7854 ft 271 kts 344°
2026-05-06 04:10 37.29956 -122.08903 7510 ft 272 kts 344°
2026-05-06 04:10 37.31751 -122.09610 7166 ft 273 kts 344°
2026-05-06 04:11 37.33569 -122.10326 6797 ft 271 kts 344°
2026-05-06 04:11 37.35363 -122.11033 6475 ft 270 kts 344°
2026-05-06 04:11 37.37111 -122.11724 6321 ft 260 kts 343°
2026-05-06 04:11 37.38845 -122.12367 6018 ft 262 kts 346°
2026-05-06 04:12 37.40653 -122.12978 5473 ft 267 kts 346°
2026-05-06 04:12 37.42367 -122.13557 5131 ft 248 kts 345°
2026-05-06 04:12 37.43986 -122.14107 4832 ft 239 kts 345°
2026-05-06 04:12 37.45607 -122.14656 4538 ft 241 kts 345°
2026-05-06 04:13 37.47220 -122.15186 4241 ft 238 kts 345°
2026-05-06 04:13 37.48774 -122.15695 3923 ft 222 kts 344°
2026-05-06 04:13 37.50237 -122.16176 3677 ft 214 kts 343°
2026-05-06 04:13 37.51642 -122.16639 3440 ft 202 kts 343°
2026-05-06 04:14 37.52919 -122.17151 3210 ft 189 kts 327°
2026-05-06 04:14 37.53780 -122.18334 3125 ft 182 kts 301°
2026-05-06 04:14 37.54501 -122.19678 2898 ft 187 kts 302°
2026-05-06 04:14 37.55175 -122.21039 2647 ft 180 kts 298°
2026-05-06 04:15 37.55772 -122.22407 2414 ft 177 kts 296°
2026-05-06 04:15 37.56339 -122.23753 2187 ft 168 kts 296°
2026-05-06 04:15 37.56845 -122.24958 1942 ft 146 kts 296°
2026-05-06 04:15 37.57318 -122.26090 1777 ft 145 kts 296°
2026-05-06 04:16 37.57789 -122.27212 1570 ft 148 kts 296°
2026-05-06 04:16 37.58266 -122.28352 1392 ft 146 kts 296°
2026-05-06 04:16 37.58725 -122.29449 1177 ft 138 kts 296°
2026-05-06 04:16 37.59167 -122.30500 978 ft 134 kts 296°
2026-05-06 04:17 37.59601 -122.31536 807 ft 134 kts 295°
2026-05-06 04:17 37.60038 -122.32581 645 ft 136 kts 295°
2026-05-06 04:17 37.60482 -122.33638 426 ft 136 kts 295°
2026-05-06 04:17 37.60908 -122.34696 265 ft 136 kts 297°
2026-05-06 04:18 37.61363 -122.35743 89 ft 135 kts 296°
2026-05-06 04:18 37.61777 -122.36736 23 ft 112 kts 297°
2026-05-06 04:18 37.62060 -122.37400 22 ft 63 kts 298°
2026-05-06 04:18 37.62259 -122.37873 30 ft 45 kts 298°
2026-05-06 04:19 37.62340 -122.38155 28 ft 29 kts 258°
2026-05-06 04:19 37.62259 -122.38266 31 ft 14 kts 207°
2026-05-06 04:19 37.62169 -122.38306 28 ft 6 kts 197°
2026-05-06 04:19 37.62131 -122.38329 31 ft 6 kts 226°
2026-05-06 04:20 37.62125 -122.38384 26 ft 7 kts 279°
2026-05-06 04:20 37.62143 -122.38446 28 ft 8 kts 295°
2026-05-06 04:20 37.62164 -122.38497 29 ft 0 kts 298°
2026-05-06 04:21 37.62164 -122.38499 29 ft 3 kts 298°
2026-05-06 04:21 37.62169 -122.38509 29 ft 0 kts 298°
2026-05-06 04:21 37.62175 -122.38524 30 ft 6 kts 298°
2026-05-06 04:21 37.62189 -122.38557 28 ft 7 kts 298°
2026-05-06 04:22 37.62226 -122.38646 23 ft 11 kts 297°
2026-05-06 04:22 37.62266 -122.38742 19 ft 13 kts 297°
2026-05-06 04:22 37.62296 -122.38811 20 ft 13 kts 299°
2026-05-06 04:23 37.62327 -122.39033 19 ft 14 kts 254°
2026-05-06 04:23 37.62293 -122.39146 19 ft 14 kts 240°
2026-05-06 04:23 37.62215 -122.39217 19 ft 14 kts 209°
2026-05-06 04:23 37.62129 -122.39274 19 ft 14 kts 208°
2026-05-06 04:24 37.62052 -122.39261 21 ft 12 kts 154°
2026-05-06 04:24 37.61974 -122.39221 23 ft 12 kts 152°
2026-05-06 04:24 37.61936 -122.39224 25 ft 2 kts 207°
2026-05-06 04:24 37.61910 -122.39240 23 ft 5 kts 207°
2026-05-06 04:25 37.61892 -122.39252 23 ft 0 kts 207°